FW7070 Weather Reports


time (UTC)temp
C
wind
direction
speed
KPH
gust
KPH
rain 1hr
cm
rain 24hr
cm
rain mn
cm
humidity
%
barometer
mb
20260831141703 21 207 1.6 14.5 0.00 0.81 0.81 91 1038.3
20260831141158 20 224 6.4 14.5 0.00 0.81 0.81 91 1038.4
20260831140658 20 225 11.3 17.7 0.00 0.81 0.81 91 1038.4
20260831140153 20 241 8.0 14.5 0.00 0.81 0.81 92 1038.3
20260831135650 20 108 0.0 11.3 0.00 0.81 0.81 93 1038.1
20260831135146 20 181 3.2 14.5 0.00 0.81 0.81 94 1038.2
20260831134642 20 89 0.0 9.7 0.00 0.81 0.81 95 1038.4
20260831134138 20 233 4.8 9.7 0.00 0.81 0.81 94 1038.5
20260831133636 20 234 9.7 16.1 0.00 0.81 0.81 95 1038.4
20260831133131 19 221 4.8 9.7 0.00 0.81 0.81 96 1038.3
20260831132627 19 218 3.2 8.0 0.05 0.81 0.81 98 1038.5
20260831132126 19 124 1.6 3.2 0.05 0.81 0.81 98 1038.5
20260831131621 18 200 1.6 6.4 0.00 0.81 0.81 99 1038.6
20260831131118 18 238 4.8 8.0 0.05 0.81 0.81 99 1038.6
20260831130613 18 241 0.0 3.2 0.05 0.81 0.81 99 1038.3
20260831130109 18 240 4.8 9.7 0.00 0.79 0.79 99 1038.7
20260831125607 18 147 0.0 4.8 0.00 0.79 0.79 99 1038.3
20260831125102 18 48 0.0 3.2 0.00 0.79 0.79 99 1038.5
20260831124559 18 20 0.0 4.8 0.05 0.79 0.79 99 1038.4
20260831124054 18 120 0.0 4.8 0.05 0.79 0.79 99 1038.7
20260831123553 18 32 0.0 3.2 0.18 0.79 0.79 99 1038.4
20260831123048 18 89 0.0 6.4 0.18 0.76 0.76 99 1038.6
20260831122543 18 207 3.2 8.0 0.05 0.74 0.74 99 1038.6
20260831122038 18 89 0.0 6.4 0.00 0.74 0.74 99 1038.5
20260831121532 18 208 0.0 8.0 0.00 0.74 0.74 99 1038.4
20260831121029 18 124 4.8 4.8 0.13 0.74 0.74 99 1038.4
20260831120527 18 230 0.0 6.4 0.66 0.74 0.74 99 1038.6
20260831120023 18 101 0.0 3.2 0.89 0.71 0.71 99 1038.5
20260831115519 18 269 0.0 9.7 0.97 0.61 0.61 99 1038.5
20260831115015 18 141 3.2 6.4 0.53 0.56 0.56 99 1038.8
20260831114514 18 169 0.0 4.8 0.00 0.46 0.46 99 1038.8
20260831114009 18 135 0.0 6.4 0.18 0.46 0.46 99 1038.8
20260831113508 18 193 0.0 4.8 0.36 0.46 0.46 99 1038.6
20260831113004 18 155 3.2 4.8 0.30 0.43 0.43 99 1038.9
20260831112503 18 170 3.2 4.8 0.48 0.41 0.41 99 1038.8
20260831111958 18 243 0.0 6.4 0.43 0.38 0.38 99 1038.8
20260831111454 18 152 3.2 4.8 0.18 0.33 0.33 99 1038.9
20260831110949 18 145 1.6 3.2 0.30 0.30 0.30 98 1039.1
20260831110444 18 217 0.0 4.8 1.02 0.28 0.28 98 1038.9
20260831105943 18 242 0.0 6.4 1.14 0.25 0.25 98 1038.9
20260831105439 18 277 4.8 11.3 0.30 0.10 0.10 97 1039.1
20260831104939 18 326 3.2 8.0 0.00 0.05 0.05 97 1038.7
20260831104435 18 36 0.0 4.8 0.00 0.05 0.05 98 1038.8
20260831103931 18 139 3.2 6.4 0.00 0.05 0.05 98 1038.6
20260831103426 18 125 0.0 3.2 0.00 0.05 0.05 98 1038.7
20260831102921 18 65 0.0 3.2 0.00 0.05 0.05 98 1038.6
20260831102416 18 147 0.0 4.8 0.00 0.05 0.05 98 1038.7
20260831101911 18 183 0.0 8.0 0.00 0.05 0.05 98 1038.7
20260831101406 18 131 3.2 4.8 0.00 0.05 0.05 98 1038.8
20260831100903 18 44 0.0 3.2 0.00 0.05 0.05 98 1038.6
20260831100358 18 52 0.0 3.2 0.00 0.05 0.05 98 1038.6
20260831095858 18 70 1.6 4.8 0.00 0.05 0.05 98 1038.7
20260831095357 19 80 1.6 3.2 0.00 0.05 0.05 97 1038.7
20260831094853 19 293 0.0 1.6 0.00 0.05 0.05 97 1038.7
20260831094348 19 213 3.2 8.0 0.00 0.05 0.05 97 1038.8
20260831093844 19 251 3.2 8.0 0.00 0.05 0.05 97 1038.9
20260831093339 19 266 1.6 9.7 0.05 0.05 0.05 97 1038.9
20260831092836 19 254 4.8 9.7 0.13 0.05 0.05 97 1038.7
20260831092331 19 263 8.0 11.3 0.05 0.05 0.05 97 1039.0
20260831091826 19 285 3.2 6.4 0.00 0.05 0.05 98 1038.6
20260831091322 19 187 0.0 3.2 0.00 0.05 0.05 98 1038.6
20260831090817 18 284 0.0 3.2 0.00 0.05 0.05 98 1038.4
20260831090312 18 268 0.0 4.8 0.00 0.05 0.05 98 1038.7
20260831085808 18 142 0.0 8.0 0.00 0.05 0.05 98 1038.9
20260831085306 18 205 0.0 6.4 0.00 0.05 0.05 99 1038.6
20260831084758 18 187 4.8 6.4 0.00 0.05 0.05 99 1038.6
20260831084254 18 326 3.2 3.2 0.00 0.05 0.05 99 1038.9
20260831083749 18 229 0.0 3.2 0.00 0.05 0.05 99 1038.8
20260831083245 18 94 1.6 6.4 0.00 0.05 0.05 99 1038.8
20260831082743 18 225 4.8 4.8 0.00 0.05 0.05 99 1038.9
20260831082239 18 218 3.2 4.8 0.00 0.05 0.05 99 1038.9
20260831081735 18 110 0.0 4.8 0.00 0.05 0.05 99 1038.8
20260831081230 18 37 0.0 1.6 0.00 0.05 0.05 99 1039.2
20260831080726 18 262 3.2 6.4 0.00 0.05 0.05 99 1039.1
20260831080225 18 322 0.0 4.8 0.00 0.05 0.05 99 1039.3
20260831075721 18 164 0.0 1.6 0.00 0.05 0.05 99 1039.2
20260831075217 18 260 1.6 3.2 0.00 0.05 0.05 99 1039.4
20260831074717 18 104 0.0 3.2 0.00 0.05 0.05 99 1039.4
20260831074216 18 44 0.0 1.6 0.00 0.05 0.05 99 1039.3
20260831073712 18 62 0.0 1.6 0.00 0.05 0.05 99 1039.3
20260831073211 18 121 1.6 8.0 0.00 0.05 0.05 99 1039.3
20260831072706 18 62 0.0 3.2 0.00 0.05 0.05 99 1039.5
20260831072203 18 130 0.0 3.2 0.00 0.05 0.05 99 1039.7
20260831071702 18 50 0.0 1.6 0.00 0.05 0.05 99 1039.7
20260831071157 18 136 0.0 4.8 0.00 0.05 0.05 99 1039.8
20260831070656 18 163 0.0 3.2 0.00 0.05 0.05 99 1039.6
20260831070151 18 32 0.0 0.0 0.00 0.05 0.05 99 1039.9
20260831065650 18 50 0.0 1.6 0.00 0.05 0.05 99 1039.9
20260831065149 18 94 1.6 3.2 0.00 0.05 0.05 99 1039.7
20260831064643 18 104 0.0 0.0 0.00 0.05 0.05 99 1040.1
20260831064133 18 64 0.0 1.6 0.00 0.05 0.05 99 1039.9
20260831063630 18 37 0.0 1.6 0.00 0.05 0.05 99 1039.7
20260831063124 18 62 0.0 1.6 0.00 0.05 0.05 99 1040.1
20260831062624 18 75 0.0 4.8 0.00 0.05 0.05 99 1040.0
20260831062124 18 136 0.0 3.2 0.05 0.05 0.05 99 1040.2
20260831061622 18 129 0.0 3.2 0.13 0.05 0.05 99 1040.0
20260831061118 18 76 0.0 1.6 0.05 0.03 0.03 99 1040.3
20260831060614 18 297 0.0 0.0 0.00 0.03 0.03 99 1040.3
20260831060109 18 323 0.0 3.2 0.05 0.03 0.03 99 1040.4
20260831055608 18 315 0.0 1.6 0.05 0.03 0.03 99 1040.1
20260831055104 18 289 1.6 3.2 0.00 0.00 0.00 99 1040.2
20260831054603 18 38 0.0 1.6 0.00 0.00 0.00 99 1040.3
20260831054102 18 214 0.0 0.0 0.00 0.00 0.00 99 1040.3
20260831053601 18 297 0.0 0.0 0.00 0.00 0.00 99 1040.3
20260831053056 18 309 0.0 3.2 0.00 0.00 0.00 99 1040.3
20260831052555 18 343 0.0 0.0 0.00 0.00 0.00 99 1040.3
20260831052055 18 154 0.0 1.6 0.00 0.00 0.00 99 1040.3
20260831051553 18 129 0.0 3.2 0.05 0.00 0.00 99 1040.3
20260831051053 18 150 0.0 1.6 0.05 0.00 0.00 99 1040.1
20260831050553 18 137 1.6 3.2 0.00 0.00 0.00 99 1040.2
20260831050051 18 297 0.0 0.0 0.00 0.00 0.00 99 1040.3
20260831045551 18 297 0.0 0.0 0.00 0.00 0.00 99 1040.1
20260831045051 18 333 0.0 1.6 0.00 0.00 0.00 99 1040.2
20260831044547 18 288 0.0 1.6 0.00 0.00 0.00 99 1040.3
20260831044042 18 269 0.0 3.2 0.00 0.00 0.00 99 1040.1
20260831043537 18 311 0.0 4.8 0.00 0.00 0.00 99 1040.0
20260831043032 18 158 3.2 4.8 0.00 0.00 0.00 99 1040.0
20260831042526 18 269 0.0 0.0 0.00 0.00 0.00 99 1040.1
20260831042027 18 269 1.6 3.2 0.00 0.00 0.00 99 1040.5
20260831041522 18 255 0.0 3.2 0.00 0.00 0.00 99 1040.2
20260831041021 18 279 0.0 4.8 0.00 0.00 0.00 99 1040.1
20260831040516 18 224 0.0 1.6 0.00 0.00 0.00 99 1040.3
20260831040015 18 269 0.0 3.2 0.00 0.43 0.43 99 1040.2
20260831035513 18 172 0.0 3.2 0.05 0.43 0.43 99 1040.2
20260831035009 18 25 0.0 1.6 0.13 0.43 0.43 99 1040.0
20260831034503 18 126 0.0 1.6 0.13 0.41 0.41 99 1040.3
20260831033958 18 37 0.0 1.6 0.13 0.41 0.41 99 1040.3
20260831033453 18 157 0.0 1.6 0.18 0.38 0.38 99 1040.4
20260831032949 18 224 0.0 0.0 0.18 0.38 0.38 99 1040.6
20260831032449 18 224 0.0 0.0 0.18 0.36 0.36 99 1040.5
20260831031944 19 224 0.0 0.0 0.13 0.33 0.33 99 1040.5
20260831031444 19 224 0.0 1.6 0.18 0.33 0.33 99 1040.6
20260831030943 19 309 0.0 1.6 0.18 0.33 0.33 99 1040.7
20260831030443 19 205 0.0 0.0 0.05 0.30 0.30 99 1040.6
20260831025941 19 282 0.0 1.6 0.00 0.28 0.28 99 1040.7
20260831025440 18 227 3.2 4.8 0.00 0.28 0.28 99 1040.6
20260831024936 18 242 0.0 4.8 0.05 0.28 0.28 99 1040.3
20260831024436 18 218 0.0 3.2 0.05 0.28 0.28 99 1040.4
20260831023931 18 312 0.0 3.2 0.00 0.28 0.28 99 1040.5
20260831023429 18 209 0.0 4.8 0.00 0.28 0.28 99 1040.6
20260831022924 18 164 0.0 1.6 0.00 0.28 0.28 99 1040.8
20260831022423 18 60 0.0 1.6 0.00 0.28 0.28 99 1040.8
20260831021918 18 329 0.0 0.0 0.00 0.28 0.28 99 1040.8
20260831021417 18 329 0.0 3.2 0.00 0.28 0.28 99 1040.9
20260831020914 18 294 1.6 3.2 0.00 0.28 0.28 99 1040.9
20260831020413 18 246 0.0 3.2 0.00 0.28 0.28 99 1040.6
20260831015908 18 212 0.0 3.2 0.00 0.28 0.28 99 1040.7
20260831015404 18 217 0.0 3.2 0.05 0.28 0.28 99 1041.0
20260831014859 18 269 0.0 3.2 0.13 0.28 0.28 99 1040.8
20260831014354 18 309 0.0 1.6 0.13 0.28 0.28 99 1040.9
20260831013849 18 264 3.2 4.8 0.13 0.25 0.25 99 1040.8
20260831013344 18 269 0.0 1.6 0.18 0.25 0.25 99 1041.0
20260831012843 18 229 0.0 1.6 0.13 0.23 0.23 99 1040.8
20260831012339 18 284 0.0 1.6 0.00 0.23 0.23 99 1040.6
20260831011834 18 290 0.0 4.8 0.05 0.23 0.23 99 1040.8
20260831011329 18 241 0.0 3.2 0.05 0.23 0.23 99 1040.8
20260831010824 18 242 0.0 3.2 0.00 0.20 0.20 99 1040.6
20260831010324 18 265 0.0 3.2 0.00 0.20 0.20 99 1040.6
20260831005819 18 220 0.0 3.2 0.05 0.20 0.20 99 1040.6
20260831005315 18 235 0.0 1.6 0.05 0.20 0.20 99 1040.7
20260831004810 18 135 0.0 1.6 0.05 0.20 0.20 99 1040.5
20260831004307 18 257 0.0 0.0 0.05 0.20 0.20 99 1040.4
20260831003802 18 256 0.0 1.6 0.00 0.18 0.18 99 1040.4
20260831003258 18 297 0.0 1.6 0.05 0.18 0.18 99 1040.2
20260831002756 18 284 0.0 3.2 0.00 0.18 0.18 99 1040.3
20260831002251 18 280 0.0 4.8 0.00 0.18 0.18 99 1040.1
20260831001747 18 242 1.6 4.8 0.00 0.18 0.18 99 1040.1
20260831001242 18 255 0.0 1.6 0.00 0.18 0.18 99 1040.0
20260831000739 18 142 0.0 1.6 0.00 0.18 0.18 99 1040.1
20260831000238 18 37 0.0 0.0 0.00 0.18 0.18 99 1040.0
20260830235737 18 37 0.0 1.6 0.00 0.18 0.18 99 1039.9
20260830235232 18 322 0.0 3.2 0.00 0.18 0.18 99 1039.9
20260830234727 18 269 0.0 1.6 0.00 0.18 0.18 99 1039.7
20260830234223 18 322 0.0 1.6 0.00 0.18 0.18 99 1039.7
20260830233719 19 126 0.0 1.6 0.00 0.18 0.18 99 1039.8
20260830233214 19 157 0.0 1.6 0.00 0.18 0.18 99 1039.8
20260830232709 19 89 0.0 1.6 0.00 0.18 0.18 98 1039.6
20260830232205 19 38 0.0 1.6 0.00 0.18 0.18 98 1039.9
20260830231701 19 351 0.0 0.0 0.00 0.18 0.18 98 1039.7
20260830231201 19 0 0.0 1.6 0.05 0.18 0.18 98 1039.5
20260830230656 19 129 0.0 1.6 0.05 0.18 0.18 98 1039.7
20260830230151 19 154 0.0 3.2 0.00 0.18 0.18 98 1039.6
20260830225646 19 142 1.6 3.2 0.00 0.18 0.18 98 1039.6
20260830225146 19 154 0.0 1.6 0.00 0.18 0.18 98 1039.7
20260830224644 19 66 0.0 0.0 0.00 0.18 0.18 98 1039.6
20260830224141 19 50 0.0 1.6 0.00 0.18 0.18 98 1039.7
20260830223638 19 124 0.0 1.6 0.00 0.18 0.18 97 1039.6
20260830223137 19 96 0.0 1.6 0.00 0.18 0.18 97 1039.9
20260830222632 19 293 0.0 3.2 0.00 0.18 0.18 97 1039.8
20260830222128 19 287 3.2 3.2 0.00 0.18 0.18 97 1039.8
20260830221623 19 117 0.0 1.6 0.00 0.18 0.18 97 1039.7
20260830221119 19 147 0.0 3.2 0.00 0.18 0.18 96 1039.7
20260830220615 18 120 0.0 1.6 0.00 0.18 0.18 96 1039.8
20260830220114 18 236 0.0 3.2 0.00 0.18 0.18 96 1039.8
20260830215613 18 269 0.0 4.8 0.13 0.18 0.18 96 1039.5
20260830215107 18 235 4.8 12.9 0.18 0.15 0.15 96 1039.3
20260830214602 19 209 1.6 3.2 0.13 0.15 0.15 95 1039.9
20260830214057 19 341 0.0 3.2 0.00 0.13 0.13 95 1040.1
20260830213557 19 316 0.0 3.2 0.00 0.13 0.13 94 1040.0
20260830213053 19 260 0.0 4.8 0.00 0.13 0.13 95 1039.8
20260830212549 19 238 1.6 4.8 0.00 0.13 0.13 95 1039.7
20260830212049 20 329 0.0 1.6 0.00 0.13 0.13 96 1039.7
20260830211544 19 157 0.0 1.6 0.00 0.13 0.13 96 1039.9
20260830211043 19 231 4.8 6.4 0.05 0.13 0.13 95 1039.9
20260830210538 20 227 0.0 3.2 0.00 0.10 0.10 95 1040.0
20260830210037 20 269 1.6 3.2 0.00 0.10 0.10 94 1039.9
20260830205535 20 255 0.0 4.8 0.00 0.10 0.10 94 1040.1
20260830205031 19 281 1.6 3.2 0.05 0.10 0.10 94 1040.0
20260830204530 20 211 0.0 1.6 0.13 0.10 0.10 93 1039.9
20260830204030 20 276 3.2 4.8 0.05 0.10 0.10 92 1040.2
20260830203526 20 274 4.8 6.4 0.05 0.10 0.10 91 1040.2
20260830203021 20 275 6.4 17.7 0.00 0.08 0.08 90 1040.0
20260830202515 21 254 6.4 17.7 0.00 0.08 0.08 93 1040.0
20260830202012 21 253 0.0 3.2 0.00 0.08 0.08 93 1040.0
20260830201510 21 297 0.0 1.6 0.00 0.08 0.08 93 1040.1
20260830201006 21 351 0.0 0.0 0.00 0.08 0.08 92 1040.1
20260830200501 21 333 0.0 1.6 0.00 0.08 0.08 92 1040.2
20260830200000 21 355 1.6 4.8 0.00 0.08 0.08 91 1040.0
20260830195455 21 269 0.0 4.8 0.00 0.08 0.08 91 1039.9
20260830194953 22 357 0.0 3.2 0.00 0.08 0.08 90 1040.1
20260830194452 22 32 0.0 3.2 0.00 0.08 0.08 89 1040.1
20260830193947 22 29 1.6 3.2 0.00 0.08 0.08 89 1039.9
20260830193446 22 220 0.0 4.8 0.00 0.08 0.08 89 1040.1
20260830192942 21 62 0.0 1.6 0.00 0.08 0.08 89 1040.1
20260830192437 21 62 0.0 3.2 0.00 0.08 0.08 90 1040.2
20260830191932 21 4 0.0 3.2 0.00 0.08 0.08 89 1040.2
20260830191432 21 354 0.0 3.2 0.00 0.08 0.08 89 1040.2
20260830190928 21 254 3.2 4.8 0.00 0.08 0.08 87 1040.2
20260830190422 21 308 3.2 4.8 0.00 0.08 0.08 87 1040.2
20260830185922 21 180 3.2 4.8 0.00 0.08 0.08 86 1040.1
20260830185417 21 242 3.2 6.4 0.00 0.08 0.08 86 1040.2
20260830184912 21 189 0.0 4.8 0.00 0.08 0.08 89 1040.3
20260830184411 21 245 3.2 6.4 0.00 0.08 0.08 88 1040.5
20260830183906 20 237 4.8 6.4 0.00 0.08 0.08 90 1040.5
20260830183406 20 207 0.0 6.4 0.00 0.08 0.08 92 1040.8
20260830182901 20 135 0.0 4.8 0.00 0.08 0.08 94 1040.6
20260830182357 20 144 1.6 1.6 0.00 0.08 0.08 95 1040.6
20260830181853 20 238 0.0 3.2 0.00 0.08 0.08 96 1040.7
20260830181348 20 154 1.6 3.2 0.00 0.08 0.08 97 1040.8
20260830180843 20 38 0.0 0.0 0.00 0.08 0.08 97 1040.8
20260830180342 20 1 0.0 1.6 0.00 0.08 0.08 97 1040.6
20260830175842 20 117 0.0 4.8 0.00 0.08 0.08 97 1040.7
20260830175336 20 209 0.0 4.8 0.00 0.08 0.08 97 1040.9
20260830174831 20 205 0.0 4.8 0.00 0.08 0.08 97 1040.9
20260830174327 20 142 0.0 3.2 0.00 0.08 0.08 97 1040.8
20260830173827 20 235 0.0 3.2 0.00 0.08 0.08 97 1040.7
20260830173322 20 75 0.0 0.0 0.00 0.08 0.08 97 1041.0
20260830172819 20 89 0.0 1.6 0.05 0.08 0.08 97 1041.0
20260830172315 20 117 0.0 3.2 0.00 0.08 0.08 97 1041.1
20260830171810 20 345 1.6 3.2 0.00 0.08 0.08 97 1041.0
20260830171306 20 41 0.0 3.2 0.00 0.08 0.08 96 1041.0
20260830170755 20 7 0.0 1.6 0.00 0.08 0.08 96 1041.2
20260830170254 20 2 0.0 3.2 0.00 0.08 0.08 95 1040.9
20260830165753 20 50 0.0 1.6 0.00 0.08 0.08 96 1041.1
20260830165249 20 124 0.0 4.8 0.00 0.08 0.08 96 1040.8
20260830164745 20 6 0.0 1.6 0.00 0.08 0.08 96 1041.0
20260830164240 20 45 0.0 1.6 0.00 0.08 0.08 96 1040.9
20260830163737 20 143 0.0 6.4 0.00 0.08 0.08 97 1040.8
20260830163232 20 60 0.0 3.2 0.00 0.08 0.08 97 1041.0
20260830162726 20 110 1.6 3.2 0.00 0.08 0.08 97 1040.8
20260830162223 20 103 0.0 3.2 0.00 0.08 0.08 97 1040.7
20260830161719 20 50 0.0 3.2 0.05 0.08 0.08 97 1040.9
20260830161213 20 22 0.0 1.6 0.05 0.08 0.08 97 1041.0
20260830160709 20 55 0.0 4.8 0.05 0.05 0.05 97 1040.9
20260830160208 20 115 4.8 4.8 0.13 0.05 0.05 96 1041.2
20260830155705 20 50 0.0 3.2 0.05 0.05 0.05 96 1041.1
20260830155200 20 45 1.6 4.8 0.05 0.05 0.05 96 1041.1
20260830154655 20 118 1.6 8.0 0.05 0.05 0.05 96 1041.1
20260830154151 20 210 3.2 6.4 0.00 0.03 0.03 95 1041.3
20260830153648 20 252 6.4 6.4 0.00 0.03 0.03 94 1041.3
20260830153148 20 351 0.0 0.0 0.00 0.03 0.03 94 1041.0
20260830152646 20 351 0.0 0.0 0.00 0.03 0.03 95 1041.2
20260830152146 20 89 0.0 3.2 0.00 0.03 0.03 95 1041.0
20260830151641 20 124 0.0 0.0 0.05 0.03 0.03 95 1041.2
20260830151141 19 77 0.0 1.6 0.05 0.03 0.03 95 1041.0
20260830150641 19 0 0.0 3.2 0.05 0.03 0.03 94 1041.1
20260830150136 19 326 0.0 0.0 0.00 0.00 0.00 94 1041.3
20260830145635 19 284 0.0 1.6 0.00 0.00 0.00 93 1041.0
20260830145131 19 103 0.0 1.6 0.05 0.00 0.00 92 1041.0
20260830144626 19 61 0.0 3.2 0.05 0.00 0.00 91 1041.1
20260830144122 20 60 0.0 1.6 0.00 0.00 0.00 90 1041.0
20260830143618 20 31 1.6 3.2 0.00 0.00 0.00 89 1040.7
20260830143115 20 315 0.0 0.0 0.00 0.00 0.00 88 1040.9
20260830142611 20 212 0.0 0.0 0.00 0.00 0.00 86 1040.5
20260830142106 20 212 0.0 0.0 0.00 0.00 0.00 85 1040.6